{"data":{"norad_id":63182,"epoch":"2026-05-25T02:32:50.617824Z","epoch_age_seconds":59694,"freshness":"FRESH","line1":"1 63182U 25047E   26145.10614141  .00000778  00000+0  12586-3 0  9990","line2":"2 63182  97.9579 330.3590 0008937 266.7986  93.2200 14.74012952 64643","mean_motion":14.74012952,"eccentricity":0.0008937,"inclination_deg":97.9579,"raan_deg":330.359,"arg_perigee_deg":266.7986,"mean_anomaly_deg":93.22,"bstar":0.00012586,"rev_number":6464,"period_min":97.692493003277,"perigee_km":642.00675864224,"apogee_km":654.56578760061,"semimajor_km":7026.4232731214,"source":"CELESTRAK","updated_at":"2026-05-25T13:38:03.544591Z"}}